Showing default

TJS-13, 62188

Orbit data source: Space-Track

TJS-13, 62188 is a payload satellite owned by CASC (CN) in HEO that was launched on Tue, 03 Dec 2024 UTC via a CHANG ZHENG 3B launch vehicle from the Xichang Space Center, China (XSC). Payload-class satellites include a variety of spacecraft equipped with specific instruments for various scientific and technological missions. These include communications satellites like Starlink; space stations such as the ISS; scientific satellites like the Hubble; Earth observation satellites from companies like Planet Labs, Umbra, and HawkEye 360; GPS; miniature CubeSats for education and research; and military/defense satellites.

Loading next visibility...
Identifier
62188, 2024-227A
Orbit
HEO
Country
Flag of CNCN / PRC
Related business
Manufacturer
SISE
Mission
Operational Defense Technology
Bus & Motor
TJS13, Unknown motor
Mass
~4,000 kg wet, ~2,500 kg dry
Launch date (UTC)
2024-12-03 (2 years ago)
Launch vehicle
CHANG ZHENG 3B
Launch site
Xichang Space Center, China (XSC)
Object type
Payload
Rocket body
Debris
Shape & HBR
Box + 2 Pan, 15.0 m
Radar Cross Section
34.063 m², Large (>1 m²)

Expand to show TLE details & history
Last TLE update: 20 hours ago

TLE from 20 hours ago
0 TJS-13
1 62188U 24227A   26194.82032538  .00000348  00000-0  00000+0 0  9999
2 62188  63.7930  35.6828 6964392 269.4680  17.3904  2.00601367 11787
Epoch: 2026-07-13T19:41Z
TLE epoch observation values (Epoch: 2026-07-13T19:41:16.112Z)
Latitude
-0.00006°
Longitude
168.70735°
Altitude
7,373.397 km
Speed
6.555 km/s
True Right ascension
02h 22m 53s
True Declination
0° 00' 00"
Sunlit
Object was in daylight at epoch
Visualization orbit readout
Latitude
Unknown
Longitude
Unknown
Altitude
Unknown
Speed
Unknown
Apparent Right ascension
Unknown
Apparent Declination
Unknown
Sunlit
N/A
Visualization observer readout
Local Sidereal Time
04:18:29
Azimuth
Unknown
Elevation
Unknown
Doppler factor
Unknown
Orbital elements
Apogee altitude
38,672.672 km
Perigee altitude
1,683.254 km
Semi-major axis
26,556.1 km
Eccentricity
0.69644
Inclination
63.793°
RAAN
35.6828°
Arg. of periapsis
269.468°
True anomaly
90.45065°
Mean anomaly
17.3904°
Eccentric anomaly
46.18227°
Mean motion
0.50153 °/min
Orbital period
717.8 mins
BSTAR
0
Loading maneuver chart data...
Computing Atmospheric mass density...
Loading historical data...
Loading historical data...
Loading historical data...
Loading historical data...
Loading historical data...
Loading historical data...
Loading historical data...
Other satellites on launch #227 in the year 2024 (2024-12-03 UTC)

Documentation

Showing up to 5 results
|